Logan, UT

12:28 AM MST on January 17, 2018 (GMT -0700)
Logan-Cache

Weather History for KLGU - December, 2012

Change the Weather History Date:

Friday, December 28, 2012

  Actual Average Record
Temperature  
Mean Temperature 16 °F -  
Max Temperature 28 °F 29 °F 51 °F (1980)
Min Temperature 1 °F 8 °F -14 °F (1988)
Degree Days  
Heating Degree Days 50    
Moisture  
Dew Point 15 °F    
Average Humidity 88    
Maximum Humidity 100    
Minimum Humidity 69    
Precipitation  
Precipitation 0.00 in - - ()
Sea Level Pressure  
Sea Level Pressure 30.23 in    
Wind  
Wind Speed 1 mph (SW)    
Max Wind Speed 8 mph    
Max Gust Speed -    
Visibility 3 miles    
Events Fog , Snow    
Averages and records for this station are not official NWS values.
T = Trace of Precipitation, MM = Missing Value Source: NWS Daily Summary

Daily Weather History Graph

Daily Weather History Graph

Search for Another Location

Airport or City:

Trip Planner

Search our weather history database for the weather conditions in past years. The results will help you decide how hot, cold, wet, or windy it might be!

Date:

Astronomy

Dec. 28, 2012 Rise Set
Actual Time 7:54 AM MST 5:04 PM MST
Civil Twilight 7:22 AM MST 5:36 PM MST
Nautical Twilight 6:47 AM MST 6:11 PM MST
Astronomical Twilight 6:13 AM MST 6:44 PM MST
Moon 5:45 PM MST (12/28) 7:50 AM MST (12/28)
Length of Visible Light 10h 13m
Length of Day
9h 10m
Full, 100% of the Moon is Illuminated
Dec 28
Full
Jan 4
Last Quarter
Jan 11
New
Jan 18
First Quarter
Jan 26
Full

Hourly Weather History & Observations

Time (MST) Temp. Windchill Dew Point Humidity Pressure Visibility Wind Dir Wind Speed Gust Speed Precip Events Conditions
12:51 AM 19.9 °F - 17.1 °F 89% 30.17 in 3.0 mi Calm Calm - 0.00 in Snow Light Snow
1:08 AM 21.2 °F - 17.6 °F 86% 30.07 in 2.5 mi Calm Calm - 0.00 in Snow Light Snow
1:13 AM 21.2 °F 16.4 °F 17.6 °F 86% 30.06 in 3.0 mi East 3.5 mph - 0.00 in Snow Light Snow
1:51 AM 21.0 °F - 18.0 °F 88% 30.18 in 4.0 mi Calm Calm - 0.00 in   Overcast
2:51 AM 21.0 °F - 19.0 °F 92% 30.19 in 4.0 mi Calm Calm - 0.00 in Snow Light Snow
3:29 AM 21.2 °F - 19.4 °F 93% 30.10 in 3.0 mi Calm Calm - 0.00 in Snow Light Snow
3:51 AM 21.0 °F - 18.0 °F 88% 30.20 in 3.0 mi Calm Calm - 0.00 in Snow Light Snow
3:59 AM 21.2 °F - 19.4 °F 93% 30.10 in 2.0 mi Calm Calm - 0.00 in Snow Light Snow
4:39 AM 21.2 °F 16.4 °F 19.4 °F 93% 30.10 in 3.0 mi North 3.5 mph - 0.00 in Snow Light Snow
4:51 AM 21.0 °F - 19.0 °F 92% 30.21 in 4.0 mi Calm Calm - 0.00 in Snow Light Snow
4:58 AM 21.2 °F 16.4 °F 19.4 °F 93% 30.10 in 4.0 mi North 3.5 mph - 0.00 in Snow Light Snow
5:48 AM 21.2 °F - 19.4 °F 93% 30.10 in 3.0 mi Calm Calm - 0.00 in Snow Light Snow
5:51 AM 21.9 °F - 19.9 °F 92% 30.21 in 3.0 mi Calm Calm - 0.00 in Snow Light Snow
6:51 AM 21.9 °F - 19.9 °F 92% 30.22 in 6.0 mi Calm Calm - 0.00 in   Overcast
7:51 AM 21.0 °F - 19.0 °F 92% 30.25 in 5.0 mi Calm Calm - N/A   Overcast
8:51 AM 21.9 °F - 19.0 °F 89% 30.26 in 4.0 mi Calm Calm - N/A   Overcast
9:51 AM 23.0 °F - 19.9 °F 88% 30.28 in 3.0 mi Calm Calm - 0.00 in Snow Light Snow
10:51 AM 25.0 °F - 23.0 °F 92% 30.29 in 3.0 mi Calm Calm - 0.00 in Snow Light Snow
11:51 AM 27.0 °F 23.0 °F 21.9 °F 81% 30.27 in 8.0 mi ESE 3.5 mph - 0.00 in   Overcast
12:51 PM 28.9 °F - 19.9 °F 69% 30.26 in 10.0 mi Calm Calm - N/A   Overcast
1:51 PM 27.0 °F - 21.9 °F 81% 30.25 in 9.0 mi Calm Calm - N/A   Mostly Cloudy
2:51 PM 24.1 °F 19.7 °F 21.0 °F 88% 30.27 in 6.0 mi West 3.5 mph - N/A   Overcast
3:51 PM 25.0 °F - 21.0 °F 85% 30.28 in 7.0 mi Calm Calm - N/A   Overcast
6:51 PM 19.0 °F - 15.1 °F 85% 30.32 in 9.0 mi Calm Calm - N/A   Overcast
7:05 PM 17.6 °F 8.2 °F 17.6 °F 100% 30.20 in 1.0 mi SW 6.9 mph - N/A   Scattered Clouds
7:10 PM 12.2 °F 0.7 °F 12.2 °F 100% 30.21 in 0.2 mi WSW 8.1 mph - N/A Fog Light Freezing Fog
7:18 PM 12.2 °F 0.7 °F 10.4 °F 92% 30.21 in 0.2 mi SW 8.1 mph - N/A Fog Light Freezing Fog
7:51 PM 12.0 °F 5.9 °F 9.0 °F 88% 30.36 in 0.2 mi SE 3.5 mph - N/A Fog Light Freezing Fog
8:51 PM 10.9 °F - 8.1 °F 88% 30.37 in 0.2 mi Calm Calm - N/A Fog Light Freezing Fog
8:58 PM 10.4 °F - 6.8 °F 85% 30.22 in 2.5 mi Calm Calm - N/A   Mostly Cloudy
9:02 PM 10.4 °F - 6.8 °F 85% 30.22 in 0.8 mi Calm Calm - N/A   Mostly Cloudy
9:51 PM 6.1 °F - 3.0 °F 87% 30.39 in 0.2 mi Calm Calm - N/A Fog Light Freezing Fog
10:06 PM 6.8 °F - 3.2 °F 85% 30.23 in 0.2 mi Calm Calm - N/A Fog Light Freezing Fog
10:31 PM 6.8 °F - 3.2 °F 85% 30.23 in 1.5 mi Calm Calm - N/A   Mist
10:33 PM 5.0 °F - 1.4 °F 85% 30.23 in 0.8 mi Calm Calm - N/A   Mist
10:51 PM 3.0 °F - -0.0 °F 87% 30.40 in 0.2 mi Calm Calm - N/A Fog Light Freezing Fog
11:51 PM 1.9 °F - -2.0 °F 83% 30.40 in 0.2 mi Calm Calm - N/A Fog Light Freezing Fog